[[{"header":{"parameterUnit":"m.s-1","parameterCategory":2,"la1":30.2991,"la2":30.254,"lo1":-89.0895,"lo2":-89.0444,"dy":0.0017,"dx":0.0017,"nx":28,"ny":28,"refTime":"2024-04-27T09:00:00:Z","depth":"0","parameterNumber":2,"parameterNumberName":"U-component_of_CURRENTS"},"data":[0,0,0,0,0,0,0,0,0,0,0,0,0,0,0,0,0,0,0,0,0,0,0,0,0,0,0,0,0,0,0,0,0,0,0,0,0,0,0,0,0,0,0,0,0,0,0,0,0,0,0,0,0,0,0,0,0,0,-0.2925,-0.2925,0,-0.2922,-0.2922,-0.2921,-0.2881,-0.288,-0.2879,-0.2879,-0.277,-0.2767,-0.2765,0,0,0,0,0,0,0,0,0,0,0,0,0,-0.2849,-0.285,-0.2925,-0.2925,-0.2925,-0.2922,-0.2922,-0.2921,-0.2881,-0.288,-0.2879,-0.2878,-0.277,-0.2768,-0.2765,0,0,0,0,0,0,0,0,0,0,0,0,0,-0.2864,-0.2851,-0.2925,-0.2907,-0.2906,-0.2922,-0.2922,-0.2921,-0.2881,-0.288,-0.2879,-0.2878,-0.2771,-0.2768,-0.2765,-0.2764,0,0,-0.2754,-0.2753,0,0,0,0,0,0,0,0,-0.2863,-0.2866,-0.291,-0.2909,-0.2907,-0.2904,-0.2855,-0.2865,-0.2881,-0.2886,-0.2879,-0.2877,-0.2808,-0.2802,-0.2799,-0.2759,-0.2754,-0.2754,-0.2752,-0.275,-0.2749,0,0,0,0,0,0,0,-0.2862,-0.2866,-0.292,-0.291,-0.2909,-0.2885,-0.2886,-0.2857,-0.2848,-0.2886,-0.2884,-0.289,-0.2806,-0.2803,-0.2796,-0.2753,-0.2754,-0.2751,-0.2749,-0.2748,-0.2699,-0.27,0,0,0,0,0,0,-0.2874,-0.2866,-0.292,-0.292,-0.2887,-0.2887,-0.2888,-0.2903,-0.285,-0.2844,-0.2891,-0.2888,-0.2809,-0.28,-0.2792,-0.2783,-0.275,-0.2747,-0.2745,-0.2698,-0.2699,-0.27,0,0,0,0,0,0,-0.2873,-0.288,-0.292,-0.2895,-0.2899,-0.289,-0.2907,-0.2903,-0.2898,-0.2856,-0.2846,-0.2889,-0.2808,-0.2797,-0.2771,-0.2778,-0.2746,-0.2743,-0.2698,-0.2699,-0.27,-0.2767,0,0,0,0,0,0,-0.2871,-0.2879,-0.2888,-0.2896,-0.2901,-0.293,-0.2908,-0.2904,-0.2906,-0.2902,-0.2851,-0.284,-0.2806,-0.2776,-0.2767,-0.2773,-0.274,-0.2697,-0.2698,-0.2699,-0.2764,-0.2771,-0.2776,0,0,0,0,0,-0.2868,-0.2885,-0.2888,-0.2895,-0.2915,-0.2931,-0.2931,-0.2918,-0.2907,-0.2908,-0.2877,-0.2842,-0.2779,-0.2774,-0.2764,-0.2768,-0.2696,-0.2698,-0.2699,-0.2761,-0.2769,-0.2776,0,0,0,0,0,0,-0.285,-0.2884,-0.2887,-0.2911,-0.2922,-0.2926,-0.2927,-0.2923,-0.2903,-0.2893,-0.285,-0.2838,-0.2819,-0.2787,-0.2784,-0.276,-0.2732,-0.2732,-0.2783,-0.279,-0.2796,-0.2788,-0.2737,0,0,0,0,0,-0.2855,-0.2878,-0.2901,-0.2918,-0.2928,-0.2929,-0.2932,-0.2928,-0.2917,-0.2907,-0.2875,-0.2842,-0.282,-0.28,-0.2773,-0.2758,-0.2725,-0.2755,-0.2761,-0.2767,-0.2754,-0.2735,-0.2738,-0.2706,-0.2706,-0.2706,0,0,-0.2851,-0.2873,-0.2884,-0.2916,-0.2921,-0.294,-0.2927,-0.2937,-0.2943,-0.2897,-0.2885,-0.286,-0.2822,-0.2808,-0.2796,-0.278,-0.2759,-0.2769,-0.2774,-0.2758,-0.2737,-0.274,-0.2742,-0.2707,-0.2707,-0.2707,0,0,-0.2856,-0.2878,-0.2897,-0.2915,-0.2937,-0.2943,-0.295,-0.2958,-0.2951,-0.2947,-0.2917,-0.2898,-0.2862,-0.2837,-0.2821,-0.2842,-0.2795,-0.2838,-0.2856,-0.2838,-0.284,-0.2842,-0.2808,-0.2805,-0.2838,-0.2838,-0.2838,0,-0.2846,-0.2881,-0.2902,-0.2926,-0.2942,-0.2949,-0.2969,-0.297,-0.2964,-0.2961,-0.2948,-0.2907,-0.2875,-0.2858,-0.2866,-0.2854,-0.2832,-0.2833,-0.2846,-0.2847,-0.2847,-0.2811,-0.2808,-0.2841,-0.2841,-0.2841,-0.284,0,-0.2866,-0.2894,-0.2908,-0.2945,-0.2963,-0.2982,-0.2999,-0.3005,-0.3002,-0.2999,-0.2984,-0.2949,-0.2922,-0.2917,-0.2895,-0.2886,-0.2865,-0.286,-0.2828,-0.2854,-0.2815,-0.281,-0.2846,-0.2845,-0.2844,-0.2843,0,0,-0.2833,-0.2908,-0.2908,-0.2931,-0.2977,-0.2988,-0.3014,-0.3032,-0.3035,-0.3028,-0.3023,-0.2996,-0.2977,-0.2956,-0.293,-0.291,-0.2898,-0.2888,-0.2885,-0.2853,-0.2847,-0.2823,-0.2815,-0.2901,-0.29,-0.29,-0.282,0,-0.2835,-0.2884,-0.2923,-0.2959,-0.2984,-0.3016,-0.3036,-0.3051,-0.3055,-0.3051,-0.3027,-0.3008,-0.2994,-0.2976,-0.2962,-0.2913,-0.2888,-0.2919,-0.2825,-0.2822,-0.2797,-0.281,-0.2757,-0.268,-0.2815,-0.2814,-0.2814,0,-0.2828,-0.2867,-0.2907,-0.297,-0.2982,-0.3002,-0.3031,-0.3051,-0.3062,-0.3065,-0.3057,-0.3037,-0.3009,-0.2991,-0.2927,-0.2949,-0.29,-0.2861,-0.2857,-0.2803,-0.2789,-0.2674,-0.2666,-0.2673,-0.2806,-0.2806,-0.2807,0,-0.2775,-0.2848,-0.2877,-0.29,-0.2972,-0.2986,-0.3014,-0.3042,-0.3057,-0.3061,-0.3068,-0.3043,-0.3018,-0.2971,-0.291,-0.2915,-0.2832,-0.2829,-0.2755,-0.2752,-0.2669,-0.266,-0.2652,-0.2773,-0.2773,-0.2773,-0.2774,0,-0.2757,-0.2777,-0.2852,-0.2866,-0.2888,-0.2951,-0.2965,-0.2994,-0.3031,-0.3039,-0.3059,-0.305,-0.3013,-0.2972,-0.2912,-0.2823,-0.2837,-0.2748,-0.2731,-0.2692,-0.2686,-0.2657,-0.2651,-0.277,-0.2771,-0.2772,-0.2772,0,-0.2686,-0.2745,-0.2774,-0.2845,-0.2862,-0.2867,-0.2935,-0.2948,-0.3,-0.3011,-0.3014,-0.3044,-0.299,-0.2946,-0.2857,-0.2818,-0.2694,-0.2697,-0.2649,-0.2628,-0.2568,-0.2567,-0.2469,-0.2403,-0.2596,-0.2595,-0.2594,0,-0.2653,-0.266,-0.2724,-0.2731,-0.2758,-0.2789,-0.2812,-0.29,-0.2923,-0.2996,-0.299,-0.2978,-0.2947,-0.2837,-0.2765,-0.266,-0.2624,-0.2546,-0.2545,-0.2552,-0.2538,-0.2527,-0.2477,-0.2456,-0.2455,-0.2453,-0.2452,0,-0.2562,-0.258,-0.26,-0.2626,-0.2649,-0.2687,-0.2732,-0.2759,-0.2858,-0.2884,-0.2909,-0.2899,-0.2844,-0.2744,-0.2645,-0.256,-0.2506,-0.251,-0.2527,-0.2432,-0.2406,-0.2339,-0.252,-0.2437,-0.2439,-0.244,-0.2441,-0.2441,-0.246,-0.2451,-0.2473,-0.2487,-0.2524,-0.2558,-0.2534,-0.2614,-0.2646,-0.2657,-0.2758,-0.2714,-0.2714,-0.2579,-0.2521,-0.2422,-0.2394,-0.2345,-0.2341,-0.233,-0.2274,-0.2423,-0.2325,-0.2326,-0.2326,-0.2327,-0.2328,0,-0.2323,-0.2327,-0.2332,-0.2344,-0.233,-0.2403,-0.2447,-0.2399,-0.2382,-0.247,-0.2471,-0.2503,-0.2445,-0.2439,-0.2391,-0.2303,-0.224,-0.2223,-0.2203,-0.2155,-0.2295,-0.2302,-0.2184,-0.2184,-0.2184,-0.2184,-0.2184,-0.2184,-0.2243,-0.2199,-0.2213,-0.2133,-0.214,-0.2071,-0.206,-0.2026,-0.2048,-0.2022,-0.2067,-0.2147,-0.2207,-0.242,-0.2352,-0.2246,-0.2174,-0.2101,-0.2086,-0.2224,-0.2236,-0.2248,-0.2256,-0.213,-0.213,-0.1914,-0.1912,-0.1911]},{"header":{"parameterUnit":"m.s-1","parameterCategory":2,"la1":30.2991,"la2":30.254,"lo1":-89.0895,"lo2":-89.0444,"dy":0.0017,"dx":0.0017,"nx":28,"ny":28,"refTime":"2024-04-27T09:00:00:Z","depth":"0","parameterNumber":3,"parameterNumberName":"V-component_of_CURRENTS"},"data":[0,0,0,0,0,0,0,0,0,0,0,0,0,0,0,0,0,0,0,0,0,0,0,0,0,0,0,0,0,0,0,0,0,0,0,0,0,0,0,0,0,0,0,0,0,0,0,0,0,0,0,0,0,0,0,0,0,0,-0.0293,-0.0292,0,-0.0198,-0.0197,-0.0196,-0.0146,-0.0146,-0.0146,-0.0146,-0.0045,-0.0042,-0.0039,0,0,0,0,0,0,0,0,0,0,0,0,0,-0.0367,-0.0367,-0.0293,-0.0292,-0.029,-0.0199,-0.0197,-0.0196,-0.0146,-0.0146,-0.0146,-0.0146,-0.0045,-0.0042,-0.0039,0,0,0,0,0,0,0,0,0,0,0,0,0,-0.031,-0.0366,-0.0293,-0.0255,-0.025,-0.0199,-0.0197,-0.0196,-0.0146,-0.0146,-0.0146,-0.0146,-0.0047,-0.0043,-0.0039,-0.0016,0,0,-0.0027,-0.0025,0,0,0,0,0,0,0,0,-0.0313,-0.0307,-0.0261,-0.0257,-0.0252,-0.0184,-0.0186,-0.0135,-0.0146,-0.0185,-0.0146,-0.0146,-0.0091,-0.0083,-0.0065,-0.0011,-0.0007,-0.0026,-0.0024,-0.0022,-0.0021,0,0,0,0,0,0,0,-0.0318,-0.0311,-0.0255,-0.026,-0.0255,-0.0221,-0.0213,-0.0176,-0.0139,-0.0182,-0.0178,-0.0168,-0.0088,-0.0069,-0.0063,-0.0006,-0.0026,-0.0023,-0.0021,-0.0019,0.0101,0.0102,0,0,0,0,0,0,-0.0333,-0.0315,-0.0258,-0.0252,-0.0284,-0.022,-0.0211,-0.0206,-0.014,-0.013,-0.0168,-0.0166,-0.0076,-0.0067,-0.0059,-0.0021,-0.0022,-0.0019,-0.0016,0.01,0.0101,0.0102,0,0,0,0,0,0,-0.0335,-0.0329,-0.0262,-0.0281,-0.027,-0.0219,-0.0213,-0.0204,-0.0186,-0.013,-0.0119,-0.016,-0.0076,-0.0064,-0.0021,-0.0017,-0.0017,-0.0013,0.0099,0.01,0.0102,0.005,0,0,0,0,0,0,-0.0338,-0.0331,-0.0336,-0.0283,-0.027,-0.0237,-0.0213,-0.0202,-0.018,-0.0176,-0.0119,-0.0109,-0.0075,-0.0027,-0.0017,-0.0012,-0.001,0.0098,0.01,0.0101,0.0051,0.0049,0.0048,0,0,0,0,0,-0.0341,-0.035,-0.0337,-0.033,-0.0278,-0.0237,-0.0228,-0.019,-0.018,-0.0174,-0.013,-0.0111,-0.001,-0.0024,-0.0012,-0.0005,0.0097,0.0099,0.0101,0.0051,0.0049,0.0048,0,0,0,0,0,0,-0.0386,-0.0344,-0.0329,-0.0325,-0.0287,-0.0229,-0.0223,-0.0195,-0.0155,-0.0155,-0.0102,-0.0089,-0.0053,-0.0017,-0.0033,0.0037,0.0047,0.0051,0.0005,0.0004,0.0003,-0.0011,-0.0007,0,0,0,0,0,-0.0399,-0.0397,-0.0345,-0.0344,-0.0328,-0.0277,-0.0258,-0.023,-0.0186,-0.0169,-0.0125,-0.0077,-0.0035,-0.0007,0.0031,0.0071,0.0108,0.0085,0.0084,0.0083,0.0081,0.0142,0.0146,0.0108,0.0108,0.0108,0,0,-0.0418,-0.0395,-0.0393,-0.0353,-0.0323,-0.0303,-0.0265,-0.0241,-0.022,-0.0165,-0.0128,-0.0087,-0.0028,0.0014,0.0035,0.0045,0.0114,0.0085,0.0083,0.0082,0.0145,0.0148,0.0151,0.0109,0.0109,0.0109,0,0,-0.0455,-0.0432,-0.0441,-0.041,-0.0369,-0.0331,-0.0327,-0.0269,-0.024,-0.0197,-0.0153,-0.0102,-0.0041,0.0012,0.0044,0.0063,0.0097,0.0069,0.006,0.0119,0.0122,0.0126,0.0176,0.0184,0.0078,0.0077,0.0077,0,-0.0482,-0.0481,-0.0437,-0.0431,-0.0411,-0.0348,-0.0345,-0.0301,-0.0235,-0.0205,-0.0194,-0.0086,-0.0037,0.0027,0.0034,0.006,0.0089,0.0055,0.0116,0.012,0.0124,0.0175,0.0184,0.0075,0.0075,0.0076,0.0076,0,-0.0518,-0.0514,-0.0516,-0.0488,-0.0457,-0.0446,-0.0378,-0.0344,-0.0302,-0.0249,-0.0184,-0.011,-0.0041,-0.0018,0.0013,0.007,0.008,0.0096,0.0112,0.0124,0.0178,0.0189,0.0072,0.0073,0.0073,0.0074,0,0,-0.059,-0.0552,-0.0555,-0.0549,-0.0487,-0.0468,-0.0425,-0.0364,-0.0332,-0.0261,-0.0212,-0.0128,-0.0082,-0.0042,0.0011,0.0067,0.0127,0.0087,0.0091,0.0123,0.0246,0.0307,0.0325,0.0143,0.0145,0.0146,0.027,0,-0.0635,-0.0655,-0.0608,-0.0607,-0.0607,-0.0527,-0.0491,-0.0422,-0.0352,-0.0285,-0.0191,-0.0132,-0.0091,-0.0061,0.0004,0.0098,0.0153,0.0091,0.0242,0.0246,0.0288,0.0339,0.0417,0.0538,0.0281,0.0283,0.0284,0,-0.0689,-0.0692,-0.0712,-0.0669,-0.0659,-0.064,-0.0566,-0.0523,-0.0404,-0.0347,-0.0258,-0.0182,-0.0075,-0.0054,0.0116,0.0069,0.0148,0.0217,0.0224,0.0306,0.0328,0.0488,0.0568,0.0733,0.0302,0.03,0.0299,0,-0.0777,-0.0762,-0.0784,-0.0771,-0.071,-0.0694,-0.0655,-0.055,-0.0506,-0.0387,-0.0339,-0.0203,-0.0127,-0.0011,0.015,0.0127,0.0331,0.0326,0.0454,0.0459,0.057,0.0582,0.082,0.0432,0.0432,0.0431,0.0431,0,-0.0847,-0.086,-0.0831,-0.0841,-0.0853,-0.0776,-0.0752,-0.0687,-0.0582,-0.0519,-0.0386,-0.0299,-0.0116,0.0032,0.0151,0.0356,0.0343,0.0468,0.0505,0.0555,0.0564,0.0748,0.0785,0.0436,0.0435,0.0434,0.0433,0,-0.0933,-0.0918,-0.0939,-0.0905,-0.0896,-0.0907,-0.0837,-0.0807,-0.0699,-0.0611,-0.0578,-0.0362,-0.0148,0.004,0.0263,0.0373,0.0655,0.061,0.0656,0.0696,0.0957,0.0987,0.1228,0.1306,0.0775,0.0777,0.0779,0,-0.0979,-0.1002,-0.1007,-0.103,-0.1017,-0.1011,-0.0998,-0.0891,-0.084,-0.0637,-0.0595,-0.0363,-0.0155,0.0209,0.0457,0.0707,0.0782,0.0881,0.086,0.1008,0.1068,0.1078,0.1125,0.0987,0.099,0.0993,0.0995,0,-0.1053,-0.1057,-0.1079,-0.1137,-0.1148,-0.1141,-0.1104,-0.1075,-0.092,-0.0799,-0.0576,-0.0388,0.0014,0.0392,0.0712,0.0843,0.1014,0.0946,0.1107,0.1268,0.129,0.1371,0.0853,0.1021,0.1019,0.1017,0.1015,0.1014,-0.1106,-0.1154,-0.1191,-0.1239,-0.1259,-0.125,-0.1223,-0.1121,-0.1005,-0.0752,-0.0579,-0.0206,0.032,0.0828,0.0981,0.1347,0.1247,0.1432,0.1459,0.1457,0.1537,0.1069,0.127,0.1269,0.1268,0.1268,0.1267,0,-0.1171,-0.122,-0.1282,-0.1332,-0.1363,-0.1338,-0.1271,-0.1173,-0.0997,-0.0696,-0.0424,0.0242,0.0752,0.1188,0.1698,0.1863,0.187,0.1923,0.1972,0.1995,0.1615,0.1631,0.1913,0.1913,0.1912,0.1912,0.1912,0.1912,-0.1208,-0.1293,-0.1329,-0.1407,-0.1427,-0.1398,-0.1345,-0.1133,-0.0883,-0.037,0.0069,0.0411,0.1026,0.1866,0.2325,0.233,0.2451,0.2431,0.247,0.223,0.2186,0.2144,0.2173,0.2564,0.2565,0.2863,0.2867,0.2869]}],[{"header":{"parameterUnit":"m.s-1","parameterCategory":2,"la1":30.2991,"la2":30.254,"lo1":-89.0895,"lo2":-89.0444,"dy":0.0017,"dx":0.0017,"nx":28,"ny":28,"refTime":"2024-04-27T09:00:00:Z","depth":"2","parameterNumber":2,"parameterNumberName":"U-component_of_CURRENTS"},"data":[0,0,0,0,0,0,0,0,0,0,0,0,0,0,0,0,0,0,0,0,0,0,0,0,0,0,0,0,0,0,0,0,0,0,0,0,0,0,0,0,0,0,0,0,0,0,0,0,0,0,0,0,0,0,0,0,0,0,-0.2816,-0.2817,0,-0.2815,-0.2815,-0.2815,-0.2779,-0.2779,-0.2778,-0.2778,-0.2676,-0.2674,-0.2672,0,0,0,0,0,0,0,0,0,0,0,0,0,-0.2745,-0.2746,-0.2816,-0.2817,-0.2817,-0.2815,-0.2815,-0.2815,-0.278,-0.2779,-0.2778,-0.2778,-0.2677,-0.2674,-0.2672,0,0,0,0,0,0,0,0,0,0,0,0,0,-0.276,-0.2747,-0.2816,-0.2802,-0.2801,-0.2816,-0.2815,-0.2815,-0.278,-0.2779,-0.2778,-0.2777,-0.2678,-0.2674,-0.2671,-0.2668,0,0,-0.2661,-0.266,0,0,0,0,0,0,0,0,-0.2759,-0.2762,-0.2804,-0.2803,-0.2802,-0.28,-0.2753,-0.2762,-0.278,-0.2784,-0.2778,-0.2777,-0.2711,-0.2705,-0.2703,-0.2663,-0.2659,-0.2661,-0.2659,-0.2657,-0.2657,0,0,0,0,0,0,0,-0.2758,-0.2761,-0.2812,-0.2804,-0.2803,-0.2782,-0.2783,-0.2754,-0.2747,-0.2783,-0.2782,-0.2788,-0.2709,-0.2706,-0.27,-0.2657,-0.2661,-0.2658,-0.2656,-0.2655,-0.2609,-0.261,0,0,0,0,0,0,-0.2769,-0.2761,-0.2812,-0.2812,-0.2782,-0.2784,-0.2785,-0.2798,-0.275,-0.2744,-0.2789,-0.2787,-0.2712,-0.2704,-0.2696,-0.269,-0.2657,-0.2654,-0.2653,-0.2608,-0.2609,-0.261,0,0,0,0,0,0,-0.2768,-0.2774,-0.2812,-0.2789,-0.2793,-0.2787,-0.2802,-0.2799,-0.2796,-0.2756,-0.2747,-0.2789,-0.2711,-0.2701,-0.2677,-0.2686,-0.2653,-0.265,-0.2607,-0.2608,-0.2609,-0.2677,0,0,0,0,0,0,-0.2766,-0.2774,-0.2782,-0.279,-0.2795,-0.2823,-0.2803,-0.28,-0.2803,-0.28,-0.2753,-0.2743,-0.271,-0.2682,-0.2674,-0.268,-0.2647,-0.2606,-0.2608,-0.2609,-0.2674,-0.268,-0.2686,0,0,0,0,0,-0.2764,-0.2779,-0.2783,-0.2789,-0.2809,-0.2824,-0.2823,-0.2813,-0.2804,-0.2806,-0.2778,-0.2744,-0.2685,-0.268,-0.267,-0.2676,-0.2606,-0.2607,-0.2609,-0.2671,-0.2679,-0.2686,0,0,0,0,0,0,-0.2746,-0.2778,-0.2782,-0.2805,-0.2816,-0.2819,-0.2821,-0.2819,-0.2801,-0.2793,-0.2752,-0.2741,-0.2724,-0.2693,-0.269,-0.2668,-0.264,-0.264,-0.2691,-0.2698,-0.2704,-0.2696,-0.2645,0,0,0,0,0,-0.2751,-0.2772,-0.2795,-0.281,-0.282,-0.2823,-0.2827,-0.2824,-0.2815,-0.2806,-0.2777,-0.2746,-0.2724,-0.2706,-0.268,-0.2667,-0.2634,-0.2665,-0.2671,-0.2676,-0.2664,-0.2645,-0.2648,-0.2615,-0.2615,-0.2615,0,0,-0.2747,-0.2768,-0.2779,-0.2808,-0.2815,-0.2833,-0.2822,-0.2833,-0.284,-0.2796,-0.2787,-0.2764,-0.2727,-0.2715,-0.2704,-0.2688,-0.2669,-0.2678,-0.2683,-0.2667,-0.2647,-0.265,-0.2652,-0.2616,-0.2616,-0.2616,0,0,-0.2751,-0.2773,-0.2791,-0.2809,-0.2831,-0.2837,-0.2845,-0.2854,-0.2849,-0.2847,-0.2819,-0.2802,-0.2768,-0.2744,-0.2728,-0.275,-0.2704,-0.2747,-0.2765,-0.2748,-0.275,-0.2752,-0.2718,-0.2716,-0.2747,-0.2747,-0.2747,0,-0.2742,-0.2775,-0.2795,-0.2819,-0.2835,-0.2844,-0.2863,-0.2866,-0.2862,-0.286,-0.2849,-0.2811,-0.2781,-0.2765,-0.2773,-0.2762,-0.2741,-0.2743,-0.2756,-0.2757,-0.2757,-0.2722,-0.2719,-0.2751,-0.275,-0.275,-0.2749,0,-0.276,-0.2788,-0.2801,-0.2838,-0.2856,-0.2875,-0.2893,-0.29,-0.29,-0.2898,-0.2886,-0.2853,-0.2828,-0.2824,-0.2803,-0.2795,-0.2775,-0.277,-0.2738,-0.2764,-0.2726,-0.2721,-0.2756,-0.2754,-0.2753,-0.2752,0,0,-0.2727,-0.2801,-0.2802,-0.2824,-0.287,-0.2882,-0.2908,-0.2927,-0.2931,-0.2927,-0.2924,-0.2899,-0.2883,-0.2863,-0.2838,-0.2819,-0.2808,-0.2798,-0.2796,-0.2765,-0.276,-0.2734,-0.2726,-0.2812,-0.2811,-0.2811,-0.2733,0,-0.273,-0.2777,-0.2815,-0.2851,-0.2877,-0.2909,-0.293,-0.2946,-0.2952,-0.295,-0.2928,-0.2912,-0.2899,-0.2884,-0.287,-0.2822,-0.2799,-0.2829,-0.2737,-0.2734,-0.2709,-0.2722,-0.2502,-0.2414,-0.2728,-0.2727,-0.2727,0,-0.2722,-0.2761,-0.2801,-0.2863,-0.2875,-0.2895,-0.2927,-0.2947,-0.296,-0.2965,-0.296,-0.2941,-0.2915,-0.2898,-0.2836,-0.2859,-0.2812,-0.2773,-0.277,-0.2714,-0.27,-0.2437,-0.2393,-0.2719,-0.2719,-0.272,-0.272,0,-0.2671,-0.2742,-0.2772,-0.2795,-0.2866,-0.2882,-0.2911,-0.294,-0.2955,-0.2963,-0.2971,-0.2948,-0.2926,-0.288,-0.2821,-0.2826,-0.2745,-0.2742,-0.2669,-0.2666,-0.2442,-0.2421,-0.2688,-0.2688,-0.2688,-0.2688,-0.2689,0,-0.2653,-0.2674,-0.2749,-0.2763,-0.2787,-0.2849,-0.2866,-0.2895,-0.2934,-0.2942,-0.2964,-0.2956,-0.2922,-0.2882,-0.2824,-0.2736,-0.275,-0.2663,-0.2645,-0.2462,-0.2444,-0.2678,-0.2678,-0.2685,-0.2686,-0.2687,-0.2687,0,-0.2585,-0.2643,-0.2672,-0.2744,-0.2762,-0.2769,-0.2838,-0.2851,-0.2905,-0.2917,-0.2922,-0.2952,-0.2899,-0.2857,-0.277,-0.2732,-0.265,-0.2612,-0.2398,-0.2359,-0.2577,-0.2581,-0.2515,-0.2513,-0.2512,-0.2511,-0.251,0,-0.2553,-0.256,-0.2625,-0.2633,-0.2662,-0.2695,-0.2719,-0.2807,-0.283,-0.2902,-0.2897,-0.2887,-0.285,-0.2742,-0.263,-0.2515,-0.259,-0.2289,-0.2265,-0.2569,-0.2559,-0.2566,-0.2572,-0.1982,-0.1977,-0.1973,-0.1969,0,-0.2465,-0.2484,-0.2505,-0.2532,-0.2557,-0.2594,-0.264,-0.2667,-0.2765,-0.2786,-0.2809,-0.2795,-0.2703,-0.2496,-0.2383,-0.2287,-0.2297,-0.2204,-0.2544,-0.2092,-0.2069,-0.206,-0.2082,-0.1932,-0.1935,-0.1938,-0.194,-0.1942,-0.2367,-0.2359,-0.2382,-0.2397,-0.2435,-0.2468,-0.2444,-0.2495,-0.2516,-0.2468,-0.2602,-0.2462,-0.2437,-0.2121,-0.2028,-0.1929,-0.2075,-0.1973,-0.1984,-0.2,-0.1984,-0.1964,-0.1801,-0.1804,-0.1807,-0.1809,-0.1811,0,-0.2221,-0.2238,-0.2244,-0.2257,-0.2229,-0.2317,-0.2358,-0.2258,-0.2196,-0.2183,-0.2134,-0.188,-0.1782,-0.1752,-0.155,-0.1557,-0.151,-0.1496,-0.1424,-0.1461,-0.1494,-0.1453,-0.1129,-0.1127,-0.1125,-0.1124,0,0,-0.2141,-0.2093,-0.2106,-0.2021,-0.204,-0.193,-0.1918,-0.1797,-0.1716,-0.1523,-0.1427,-0.1536,-0.1641,-0.1345,-0.1319,-0.119,-0.1296,-0.1122,-0.1659,-0.1604,-0.1635,-0.1755,-0.1731,0,0,0,0,0]},{"header":{"parameterUnit":"m.s-1","parameterCategory":2,"la1":30.2991,"la2":30.254,"lo1":-89.0895,"lo2":-89.0444,"dy":0.0017,"dx":0.0017,"nx":28,"ny":28,"refTime":"2024-04-27T09:00:00:Z","depth":"2","parameterNumber":3,"parameterNumberName":"V-component_of_CURRENTS"},"data":[0,0,0,0,0,0,0,0,0,0,0,0,0,0,0,0,0,0,0,0,0,0,0,0,0,0,0,0,0,0,0,0,0,0,0,0,0,0,0,0,0,0,0,0,0,0,0,0,0,0,0,0,0,0,0,0,0,0,-0.0329,-0.0328,0,-0.0236,-0.0235,-0.0234,-0.0183,-0.0183,-0.0183,-0.0183,-0.0082,-0.008,-0.0077,0,0,0,0,0,0,0,0,0,0,0,0,0,-0.0398,-0.0398,-0.0329,-0.0328,-0.0327,-0.0236,-0.0235,-0.0234,-0.0183,-0.0183,-0.0183,-0.0183,-0.0083,-0.008,-0.0077,0,0,0,0,0,0,0,0,0,0,0,0,0,-0.0343,-0.0397,-0.0329,-0.0291,-0.0286,-0.0237,-0.0235,-0.0233,-0.0183,-0.0183,-0.0183,-0.0183,-0.0084,-0.008,-0.0076,-0.0055,0,0,-0.0065,-0.0063,0,0,0,0,0,0,0,0,-0.0346,-0.034,-0.0297,-0.0293,-0.0288,-0.0221,-0.0223,-0.0174,-0.0183,-0.0222,-0.0183,-0.0183,-0.0128,-0.0121,-0.0103,-0.0051,-0.0046,-0.0064,-0.0062,-0.006,-0.0059,0,0,0,0,0,0,0,-0.035,-0.0344,-0.0292,-0.0296,-0.0291,-0.0256,-0.0249,-0.0213,-0.0177,-0.0218,-0.0215,-0.0205,-0.0126,-0.0107,-0.01,-0.0045,-0.0064,-0.0061,-0.0058,-0.0057,0.0061,0.0062,0,0,0,0,0,0,-0.0366,-0.0348,-0.0295,-0.0289,-0.0318,-0.0256,-0.0247,-0.0243,-0.0177,-0.0167,-0.0205,-0.0203,-0.0114,-0.0105,-0.0097,-0.0059,-0.006,-0.0057,-0.0054,0.006,0.0061,0.0062,0,0,0,0,0,0,-0.0368,-0.0362,-0.0298,-0.0316,-0.0306,-0.0255,-0.025,-0.0241,-0.0223,-0.0167,-0.0157,-0.0197,-0.0113,-0.0102,-0.0059,-0.0055,-0.0055,-0.0051,0.0059,0.0061,0.0062,0.0011,0,0,0,0,0,0,-0.037,-0.0364,-0.0369,-0.0318,-0.0305,-0.0274,-0.025,-0.0239,-0.0217,-0.0213,-0.0156,-0.0147,-0.0112,-0.0065,-0.0056,-0.005,-0.0048,0.0058,0.006,0.0061,0.0012,0.0011,0.001,0,0,0,0,0,-0.0373,-0.0383,-0.037,-0.0364,-0.0314,-0.0275,-0.0265,-0.0228,-0.0217,-0.0211,-0.0167,-0.0149,-0.0049,-0.0062,-0.005,-0.0043,0.0058,0.0059,0.0061,0.0012,0.0011,0.001,0,0,0,0,0,0,-0.0418,-0.0377,-0.0362,-0.036,-0.0323,-0.0266,-0.0261,-0.0233,-0.0193,-0.0192,-0.014,-0.0127,-0.0091,-0.0055,-0.0071,-0.0002,0.0008,0.0012,-0.0033,-0.0034,-0.0035,-0.0048,-0.0045,0,0,0,0,0,-0.0431,-0.0429,-0.0379,-0.0379,-0.0364,-0.0313,-0.0295,-0.0267,-0.0224,-0.0207,-0.0163,-0.0115,-0.0073,-0.0046,-0.0008,0.0031,0.0069,0.0046,0.0045,0.0043,0.0042,0.0103,0.0107,0.0068,0.0068,0.0068,0,0,-0.045,-0.0427,-0.0427,-0.0389,-0.0359,-0.034,-0.0302,-0.0278,-0.0257,-0.0202,-0.0165,-0.0124,-0.0066,-0.0025,-0.0004,0.0006,0.0075,0.0046,0.0044,0.0044,0.0105,0.0109,0.0112,0.0069,0.0069,0.0069,0,0,-0.0486,-0.0466,-0.0475,-0.0445,-0.0404,-0.0367,-0.0363,-0.0305,-0.0276,-0.0234,-0.019,-0.0139,-0.0079,-0.0026,0.0005,0.0025,0.0058,0.003,0.0022,0.0081,0.0084,0.0088,0.0137,0.0146,0.0039,0.0039,0.0039,0,-0.0514,-0.0514,-0.0471,-0.0465,-0.0446,-0.0383,-0.038,-0.0337,-0.0271,-0.0242,-0.0231,-0.0124,-0.0075,-0.0011,-0.0004,0.0021,0.0051,0.0018,0.0077,0.0082,0.0086,0.0136,0.0146,0.0037,0.0037,0.0037,0.0037,0,-0.0549,-0.0546,-0.0548,-0.0521,-0.0491,-0.0479,-0.0412,-0.0378,-0.0336,-0.0285,-0.022,-0.0147,-0.0078,-0.0055,-0.0024,0.0034,0.0043,0.0058,0.0074,0.0086,0.0139,0.015,0.0034,0.0034,0.0035,0.0036,0,0,-0.0621,-0.0584,-0.0587,-0.0581,-0.052,-0.05,-0.0458,-0.0397,-0.0365,-0.0295,-0.0246,-0.0163,-0.0117,-0.0077,-0.0025,0.0031,0.0091,0.0051,0.0055,0.0087,0.0209,0.0266,0.0284,0.0107,0.0108,0.011,0.0232,0,-0.0666,-0.0685,-0.0638,-0.0638,-0.0637,-0.0558,-0.0522,-0.0454,-0.0385,-0.0318,-0.0225,-0.0166,-0.0126,-0.0096,-0.0031,0.0062,0.0117,0.0056,0.0204,0.0209,0.0247,0.0298,0.0212,0.0318,0.0243,0.0245,0.0247,0,-0.0718,-0.0722,-0.0741,-0.0697,-0.0687,-0.0668,-0.0595,-0.0551,-0.0434,-0.0378,-0.029,-0.0215,-0.0108,-0.0088,0.0081,0.0034,0.0113,0.0181,0.0188,0.0266,0.0287,0.0297,0.0341,0.0265,0.0264,0.0262,0.0261,0,-0.0804,-0.0789,-0.0811,-0.0797,-0.0737,-0.072,-0.0682,-0.0578,-0.0534,-0.0416,-0.0369,-0.0234,-0.0158,-0.0044,0.0115,0.0093,0.0294,0.0289,0.0413,0.0418,0.0389,0.0389,0.0395,0.0394,0.0394,0.0394,0.0393,0,-0.0873,-0.0885,-0.0856,-0.0866,-0.0877,-0.08,-0.0777,-0.0712,-0.0609,-0.0547,-0.0414,-0.0329,-0.0147,-0.0002,0.0116,0.0318,0.0306,0.0427,0.0463,0.0371,0.0368,0.0355,0.0348,0.0398,0.0397,0.0397,0.0396,0,-0.0957,-0.0942,-0.0962,-0.0927,-0.0919,-0.0929,-0.086,-0.083,-0.0723,-0.0637,-0.0604,-0.039,-0.018,0.0007,0.0226,0.0334,0.0504,0.0567,0.045,0.0471,0.058,0.057,0.0721,0.0724,0.0727,0.0729,0.0731,0,-0.1001,-0.1024,-0.1028,-0.1051,-0.1038,-0.1032,-0.1018,-0.0913,-0.0863,-0.0663,-0.0622,-0.0393,-0.0194,0.0165,0.037,0.0606,0.0599,0.0662,0.0618,0.0599,0.0619,0.0604,0.059,0.0553,0.0553,0.0554,0.0554,0,-0.1074,-0.1078,-0.1099,-0.1156,-0.1167,-0.116,-0.1123,-0.1095,-0.0943,-0.0827,-0.061,-0.0431,-0.0071,0.0202,0.0502,0.0613,0.0621,0.0678,0.0702,0.0492,0.0454,0.0468,0.0458,0.0556,0.0556,0.0556,0.0556,0.0556,-0.1126,-0.1173,-0.1209,-0.1257,-0.1277,-0.1269,-0.1243,-0.1155,-0.1046,-0.0835,-0.0651,-0.0364,-0.0089,0.0341,0.0542,0.07,0.0712,0.0723,0.0716,0.0711,0.0678,0.0647,0.0779,0.078,0.0781,0.0782,0.0783,0,-0.1187,-0.1238,-0.1299,-0.1349,-0.1378,-0.1355,-0.1291,-0.122,-0.107,-0.0869,-0.0634,-0.0323,0.0003,0.028,0.0536,0.0723,0.0662,0.0736,0.0608,0.0605,0.0602,0.0558,0.0632,0.0632,0.0633,0.0633,0,0,-0.1223,-0.1306,-0.1341,-0.142,-0.1442,-0.1426,-0.1375,-0.1237,-0.108,-0.085,-0.0641,-0.0365,-0.0005,0.0151,0.0369,0.0504,0.0493,0.0497,0.0592,0.0408,0.0403,0.0567,0.0494,0,0,0,0,0]}],[{"header":{"parameterUnit":"m.s-1","parameterCategory":2,"la1":30.2991,"la2":30.254,"lo1":-89.0895,"lo2":-89.0444,"dy":0.0017,"dx":0.0017,"nx":28,"ny":28,"refTime":"2024-04-27T09:00:00:Z","depth":"4","parameterNumber":2,"parameterNumberName":"U-component_of_CURRENTS"},"data":[0,0,0,0,0,0,0,0,0,0,0,0,0,0,0,0,0,0,0,0,0,0,0,0,0,0,0,0,0,0,0,0,0,0,0,0,0,0,0,0,0,0,0,0,0,0,0,0,0,0,0,0,0,0,0,0,0,0,-0.1658,-0.1659,0,-0.1717,-0.1717,-0.1718,-0.1755,-0.1756,-0.1756,-0.1757,-0.1782,-0.1783,-0.1783,0,0,0,0,0,0,0,0,0,0,0,0,0,-0.1577,-0.1578,-0.1658,-0.1659,-0.166,-0.1717,-0.1717,-0.1718,-0.1755,-0.1756,-0.1756,-0.1757,-0.1782,-0.1783,-0.1783,0,0,0,0,0,0,0,0,0,0,0,0,0,-0.1619,-0.1578,-0.1658,-0.1687,-0.169,-0.1717,-0.1717,-0.1718,-0.1755,-0.1756,-0.1757,-0.1757,-0.1782,-0.1783,-0.1783,-0.1772,0,0,-0.1784,-0.1784,0,0,0,0,0,0,0,0,-0.1617,-0.1622,-0.1682,-0.1685,-0.1689,-0.1732,-0.1698,-0.1735,-0.1755,-0.1728,-0.1757,-0.1758,-0.1763,-0.1765,-0.1772,-0.1773,-0.1774,-0.1784,-0.1784,-0.1785,-0.1785,0,0,0,0,0,0,0,-0.1614,-0.162,-0.1679,-0.1683,-0.1687,-0.1697,-0.1704,-0.1705,-0.1739,-0.1731,-0.1734,-0.1744,-0.1765,-0.1772,-0.1773,-0.1775,-0.1784,-0.1785,-0.1785,-0.1785,-0.1853,-0.1855,0,0,0,0,0,0,-0.1611,-0.1617,-0.1677,-0.1681,-0.1656,-0.1698,-0.1705,-0.1715,-0.174,-0.1745,-0.1744,-0.1746,-0.1771,-0.1772,-0.1774,-0.1845,-0.1785,-0.1785,-0.1785,-0.1852,-0.1853,-0.1855,0,0,0,0,0,0,-0.1609,-0.1615,-0.1675,-0.1652,-0.1661,-0.1699,-0.171,-0.1716,-0.1756,-0.175,-0.1755,-0.1781,-0.1771,-0.1773,-0.1809,-0.1843,-0.1785,-0.1786,-0.185,-0.1852,-0.1854,-0.1934,0,0,0,0,0,0,-0.1606,-0.1614,-0.1634,-0.1652,-0.1662,-0.1711,-0.171,-0.1717,-0.176,-0.1764,-0.1783,-0.1784,-0.1772,-0.1809,-0.181,-0.1843,-0.1786,-0.1848,-0.1851,-0.1854,-0.193,-0.1939,-0.1947,0,0,0,0,0,-0.1603,-0.1621,-0.1634,-0.1642,-0.1683,-0.1713,-0.1719,-0.1747,-0.1761,-0.1784,-0.1802,-0.1785,-0.1828,-0.1811,-0.1811,-0.1845,-0.1846,-0.185,-0.1853,-0.1926,-0.1937,-0.1947,0,0,0,0,0,0,-0.1594,-0.1627,-0.1642,-0.167,-0.1701,-0.1721,-0.1748,-0.1766,-0.1799,-0.1813,-0.1805,-0.1808,-0.1851,-0.1838,-0.1819,-0.1873,-0.1834,-0.1838,-0.1889,-0.19,-0.1908,-0.1895,-0.1786,0,0,0,0,0,-0.1602,-0.1627,-0.1657,-0.1683,-0.1702,-0.1733,-0.1755,-0.1776,-0.1801,-0.1818,-0.1833,-0.1848,-0.186,-0.1874,-0.1879,-0.1911,-0.1878,-0.1933,-0.1941,-0.1949,-0.1939,-0.193,-0.1937,-0.1867,-0.1867,-0.1867,0,0,-0.1605,-0.1628,-0.1643,-0.1684,-0.1712,-0.1748,-0.1748,-0.1794,-0.1829,-0.1814,-0.1874,-0.188,-0.1875,-0.1911,-0.1929,-0.191,-0.1954,-0.1953,-0.196,-0.1945,-0.1934,-0.1941,-0.1947,-0.1869,-0.1869,-0.1868,0,0,-0.1619,-0.165,-0.1676,-0.1708,-0.176,-0.1779,-0.1801,-0.1845,-0.1873,-0.1925,-0.1922,-0.1948,-0.198,-0.1977,-0.1978,-0.2037,-0.1999,-0.2051,-0.2087,-0.208,-0.2085,-0.2089,-0.2061,-0.2062,-0.2057,-0.2057,-0.2058,0,-0.1625,-0.1663,-0.1689,-0.1726,-0.1762,-0.1799,-0.184,-0.1871,-0.1924,-0.1946,-0.1958,-0.2002,-0.2004,-0.2028,-0.2054,-0.2055,-0.204,-0.2049,-0.209,-0.2093,-0.2096,-0.2066,-0.2066,-0.2062,-0.2061,-0.2061,-0.206,0,-0.1649,-0.1699,-0.172,-0.178,-0.1819,-0.1864,-0.1909,-0.1956,-0.1999,-0.2023,-0.2074,-0.2078,-0.21,-0.2112,-0.2104,-0.2132,-0.2111,-0.2101,-0.2061,-0.2108,-0.2073,-0.2072,-0.2068,-0.2066,-0.2065,-0.2064,0,0,-0.1609,-0.1717,-0.1728,-0.1773,-0.1856,-0.1884,-0.1954,-0.2012,-0.2049,-0.2103,-0.2141,-0.2173,-0.2179,-0.2179,-0.2174,-0.2171,-0.2185,-0.2155,-0.2153,-0.2121,-0.2161,-0.2036,-0.2021,-0.2192,-0.2192,-0.2192,-0.213,0,-0.1625,-0.1703,-0.1756,-0.1839,-0.1885,-0.1951,-0.2005,-0.2063,-0.2111,-0.2155,-0.217,-0.2202,-0.2203,-0.2219,-0.2222,-0.219,-0.2185,-0.2202,-0.2123,-0.212,-0.1999,-0.2016,-0.2193,-0.2128,-0.2128,-0.2127,-0.2127,0,-0.162,-0.1681,-0.1766,-0.1875,-0.1901,-0.1958,-0.2047,-0.21,-0.2164,-0.2201,-0.2239,-0.2248,-0.2261,-0.2252,-0.2225,-0.2241,-0.2211,-0.2181,-0.2177,-0.2025,-0.1991,-0.207,-0.2123,-0.2124,-0.2124,-0.2124,-0.2124,0,-0.156,-0.1681,-0.1753,-0.1792,-0.1917,-0.1972,-0.2037,-0.2117,-0.2159,-0.2226,-0.2256,-0.2275,-0.2287,-0.226,-0.222,-0.2229,-0.2168,-0.2167,-0.202,-0.2011,-0.2107,-0.2103,-0.214,-0.214,-0.214,-0.2141,-0.2141,0,-0.1536,-0.1595,-0.1738,-0.1776,-0.1854,-0.1953,-0.2029,-0.2093,-0.2176,-0.2206,-0.2274,-0.2278,-0.2295,-0.2268,-0.2222,-0.2106,-0.2172,-0.2012,-0.1983,-0.2144,-0.2145,-0.2106,-0.2102,-0.2138,-0.2139,-0.2139,-0.214,0,-0.1452,-0.1553,-0.1637,-0.1783,-0.1831,-0.1883,-0.2022,-0.2062,-0.2161,-0.22,-0.2224,-0.2286,-0.224,-0.2224,-0.2164,-0.2092,-0.2,-0.1946,-0.2106,-0.2091,-0.1846,-0.1848,-0.1761,-0.1756,-0.1752,-0.1748,-0.1745,0,-0.1413,-0.1452,-0.1612,-0.1658,-0.1733,-0.1834,-0.1893,-0.203,-0.2065,-0.2173,-0.2166,-0.2184,-0.2194,-0.2,-0.2011,-0.1899,-0.1881,-0.1833,-0.1846,-0.1824,-0.1806,-0.1815,-0.1823,-0.1738,-0.1737,-0.1736,-0.1735,0,-0.1323,-0.1395,-0.146,-0.1558,-0.1642,-0.1719,-0.1817,-0.1834,-0.1966,-0.2078,-0.2043,-0.2007,-0.1956,-0.1894,-0.1828,-0.1754,-0.186,-0.1788,-0.1796,-0.1809,-0.1796,-0.1784,-0.1797,-0.172,-0.1722,-0.1724,-0.1725,0,-0.124,-0.1262,-0.1355,-0.1424,-0.1524,-0.1566,-0.1646,-0.169,-0.1748,-0.1879,-0.1856,-0.1874,-0.1933,-0.1817,-0.175,-0.1671,-0.1641,-0.1591,-0.1609,-0.1626,-0.1609,-0.1575,-0.1393,0,0,0,0,0,-0.1142,-0.1152,-0.121,-0.1278,-0.1374,-0.1423,-0.1568,-0.1651,-0.1785,-0.1711,-0.1781,-0.1722,-0.1642,-0.1656,-0.1536,-0.1671,-0.1641,-0.1527,-0.1593,-0.1639,-0.1656,-0.1648,0,0,0,0,0,0,-0.1075,-0.112,-0.1153,-0.1139,-0.1148,-0.1232,-0.1316,-0.1419,-0.1395,-0.1533,-0.149,-0.1595,-0.1529,-0.1646,-0.1481,-0.1483,-0.1488,-0.1551,-0.1546,-0.1629,-0.1645,-0.1658,-0.1657,0,0,0,0,0]},{"header":{"parameterUnit":"m.s-1","parameterCategory":2,"la1":30.2991,"la2":30.254,"lo1":-89.0895,"lo2":-89.0444,"dy":0.0017,"dx":0.0017,"nx":28,"ny":28,"refTime":"2024-04-27T09:00:00:Z","depth":"4","parameterNumber":3,"parameterNumberName":"V-component_of_CURRENTS"},"data":[0,0,0,0,0,0,0,0,0,0,0,0,0,0,0,0,0,0,0,0,0,0,0,0,0,0,0,0,0,0,0,0,0,0,0,0,0,0,0,0,0,0,0,0,0,0,0,0,0,0,0,0,0,0,0,0,0,0,-0.0326,-0.0326,0,-0.0273,-0.0272,-0.0271,-0.0238,-0.0238,-0.0238,-0.0238,-0.0166,-0.0165,-0.0163,0,0,0,0,0,0,0,0,0,0,0,0,0,-0.0337,-0.0337,-0.0326,-0.0326,-0.0325,-0.0273,-0.0272,-0.0271,-0.0238,-0.0238,-0.0238,-0.0238,-0.0167,-0.0165,-0.0163,0,0,0,0,0,0,0,0,0,0,0,0,0,-0.0312,-0.0337,-0.0326,-0.0303,-0.0301,-0.0273,-0.0272,-0.0271,-0.0238,-0.0238,-0.0238,-0.0238,-0.0168,-0.0165,-0.0162,-0.0148,0,0,-0.0154,-0.0153,0,0,0,0,0,0,0,0,-0.0313,-0.0311,-0.0307,-0.0305,-0.0302,-0.0263,-0.0249,-0.0229,-0.0238,-0.0261,-0.0238,-0.0238,-0.0198,-0.0192,-0.0181,-0.0144,-0.0141,-0.0154,-0.0152,-0.0151,-0.015,0,0,0,0,0,0,0,-0.0315,-0.0313,-0.0304,-0.0307,-0.0303,-0.0274,-0.0271,-0.0245,-0.0229,-0.0259,-0.0257,-0.0252,-0.0196,-0.0184,-0.018,-0.014,-0.0154,-0.0151,-0.0149,-0.0148,-0.0058,-0.0057,0,0,0,0,0,0,-0.0328,-0.0315,-0.0306,-0.0303,-0.0309,-0.0274,-0.0271,-0.0275,-0.023,-0.0224,-0.0253,-0.0251,-0.0189,-0.0183,-0.0177,-0.0146,-0.0151,-0.0148,-0.0147,-0.0058,-0.0057,-0.0057,0,0,0,0,0,0,-0.0328,-0.0328,-0.0308,-0.0308,-0.0303,-0.0275,-0.0279,-0.0274,-0.0266,-0.0226,-0.0219,-0.0251,-0.0189,-0.0181,-0.0151,-0.0144,-0.0147,-0.0144,-0.0059,-0.0058,-0.0057,-0.0092,0,0,0,0,0,0,-0.0329,-0.0328,-0.034,-0.0309,-0.0304,-0.0298,-0.0279,-0.0273,-0.0264,-0.0261,-0.0222,-0.0215,-0.0188,-0.0155,-0.0148,-0.014,-0.0142,-0.006,-0.0059,-0.0057,-0.0092,-0.0092,-0.0092,0,0,0,0,0,-0.0329,-0.0347,-0.0341,-0.034,-0.032,-0.0298,-0.0293,-0.027,-0.0264,-0.0262,-0.023,-0.0216,-0.014,-0.0152,-0.0144,-0.0135,-0.0061,-0.0059,-0.0057,-0.0092,-0.0092,-0.0092,0,0,0,0,0,0,-0.036,-0.0344,-0.0337,-0.035,-0.0328,-0.0293,-0.0294,-0.0276,-0.025,-0.025,-0.021,-0.0201,-0.0174,-0.0146,-0.016,-0.0102,-0.0097,-0.0093,-0.0125,-0.0125,-0.0126,-0.0133,-0.014,0,0,0,0,0,-0.0372,-0.0382,-0.0355,-0.0366,-0.0358,-0.0327,-0.0318,-0.0301,-0.0272,-0.0261,-0.0229,-0.0192,-0.0159,-0.0138,-0.0109,-0.0078,-0.0049,-0.0064,-0.0064,-0.0065,-0.0064,-0.0013,-0.0009,-0.0051,-0.0051,-0.0051,0,0,-0.0389,-0.0382,-0.0388,-0.0374,-0.0357,-0.0346,-0.0322,-0.0312,-0.0296,-0.0257,-0.0231,-0.02,-0.0153,-0.012,-0.0104,-0.0096,-0.0037,-0.0063,-0.0064,-0.0062,-0.0011,-0.0007,-0.0003,-0.005,-0.005,-0.005,0,0,-0.0421,-0.042,-0.0433,-0.0416,-0.0394,-0.037,-0.037,-0.0334,-0.0313,-0.0284,-0.0249,-0.0208,-0.0164,-0.0118,-0.0092,-0.0074,-0.0048,-0.007,-0.0069,-0.002,-0.0017,-0.0013,0.0026,0.0033,-0.0061,-0.0061,-0.0061,0,-0.0443,-0.0453,-0.0432,-0.0432,-0.0422,-0.0383,-0.0383,-0.0354,-0.031,-0.0288,-0.0282,-0.0197,-0.0159,-0.0102,-0.0092,-0.0075,-0.0052,-0.0076,-0.0022,-0.0018,-0.0014,0.0025,0.0034,-0.0062,-0.0062,-0.0062,-0.0062,0,-0.0472,-0.048,-0.0485,-0.0472,-0.0455,-0.0452,-0.0407,-0.0385,-0.0357,-0.0319,-0.0268,-0.021,-0.0154,-0.0134,-0.0107,-0.0054,-0.0049,-0.0039,-0.0027,-0.0012,0.0029,0.0038,-0.0065,-0.0064,-0.0064,-0.0063,0,0,-0.0524,-0.0511,-0.0515,-0.0513,-0.0477,-0.0467,-0.0438,-0.0395,-0.0373,-0.0321,-0.0282,-0.0211,-0.0177,-0.0143,-0.0099,-0.0049,0.0005,-0.0034,-0.0031,-0.0006,0.0102,0.0084,0.0092,0.0016,0.0018,0.0019,0.0117,0,-0.0555,-0.0575,-0.055,-0.0554,-0.0556,-0.0506,-0.0481,-0.0434,-0.0385,-0.0335,-0.026,-0.0214,-0.018,-0.0155,-0.0097,-0.002,0.0028,-0.0023,0.0093,0.0097,0.007,0.0102,0.0024,0.0124,0.0126,0.0128,0.0129,0,-0.0588,-0.0596,-0.0617,-0.0594,-0.0589,-0.0583,-0.0534,-0.0504,-0.0418,-0.0377,-0.0308,-0.025,-0.0158,-0.0142,0.0001,-0.0038,0.0027,0.0084,0.0089,0.0091,0.0096,0.011,0.0146,0.0145,0.0144,0.0143,0.0141,0,-0.0636,-0.0638,-0.0661,-0.0655,-0.0623,-0.0619,-0.0598,-0.0526,-0.0495,-0.0406,-0.0371,-0.0259,-0.0197,-0.0102,0.0026,0.0011,0.0175,0.0172,0.0218,0.0217,0.0217,0.0213,0.0263,0.0263,0.0263,0.0263,0.0262,0,-0.0671,-0.0687,-0.0693,-0.0702,-0.0722,-0.0675,-0.0668,-0.0624,-0.0552,-0.0511,-0.0403,-0.034,-0.0186,-0.007,0.0027,0.0159,0.0182,0.0225,0.0246,0.02,0.0193,0.0224,0.0218,0.0266,0.0266,0.0265,0.0264,0,-0.0709,-0.0717,-0.0743,-0.0741,-0.0748,-0.0761,-0.0735,-0.0717,-0.0642,-0.0584,-0.0559,-0.039,-0.0234,-0.0081,0.0097,0.0161,0.0283,0.032,0.0264,0.0279,0.0289,0.0281,0.0376,0.0376,0.0376,0.0376,0.0377,0,-0.0726,-0.0748,-0.0789,-0.082,-0.0827,-0.084,-0.0844,-0.078,-0.0747,-0.0611,-0.0579,-0.0412,-0.0293,-0.004,0.011,0.0298,0.0314,0.0366,0.0324,0.0293,0.0303,0.0294,0.0286,0.0377,0.0377,0.0377,0.0377,0,-0.0751,-0.0777,-0.0805,-0.088,-0.0912,-0.0928,-0.0922,-0.09,-0.0804,-0.0744,-0.0583,-0.0429,-0.0243,-0.0042,0.0113,0.0241,0.0327,0.0369,0.0369,0.0329,0.0295,0.0304,0.0295,0.0378,0.0378,0.0378,0.0378,0,-0.0772,-0.0809,-0.0864,-0.092,-0.0975,-0.0991,-0.0978,-0.0913,-0.0863,-0.0702,-0.0651,-0.0431,-0.0291,-0.007,0.0071,0.0201,0.0218,0.0231,0.0238,0.0239,0.0164,0.0098,0.0147,0,0,0,0,0,-0.078,-0.0828,-0.0895,-0.0957,-0.1013,-0.1034,-0.1014,-0.0978,-0.0888,-0.0789,-0.0713,-0.0537,-0.028,-0.0145,-0.002,0.0047,0.0219,0.0194,0.0231,0.0382,0.0382,0.0315,0,0,0,0,0,0,-0.0789,-0.0858,-0.0897,-0.0974,-0.1018,-0.106,-0.1047,-0.0985,-0.0905,-0.0799,-0.065,-0.0545,-0.0287,-0.0361,-0.0031,0.0015,0.0046,0.0329,0.0331,0.0383,0.0382,0.0381,0.0313,0,0,0,0,0]}]]